Precipitable_Water
1.68 1.58 1.31 1.14 1.00 0.85 0.77 0.75 0.77 0.85 0.92 0.89 0.86 0.86 0.85 0.85 0.87 0.89 0.91 0.92 0.91 0.89 0.83 0.81 0.79 0.75 0.72 0.70 0.74 0.76 0.80 0.76
1.53 1.23 1.13 1.02 0.91 0.78 0.74 0.77 0.89 0.93 0.94 0.91 0.87 0.87 0.86 0.90 0.93 0.92 0.92 0.92 0.91 0.87 0.84 0.82 0.80 0.75 0.70 0.70 0.73 0.77 0.74 0.73
1.25 1.14 1.10 1.04 0.86 0.73 0.74 0.87 0.96 0.97 0.96 0.97 1.03 1.07 1.06 1.07 0.97 0.92 0.91 0.91 0.90 0.89 0.86 0.84 0.84 0.83 0.77 0.75 0.75 0.74 0.71 0.66
1.11 1.12 1.05 0.93 0.79 0.71 0.84 0.97 1.04 1.11 1.10 1.09 1.22 1.15 1.18 1.16 0.95 0.90 0.90 0.90 0.92 0.92 0.90 0.89 0.90 0.86 0.83 0.81 0.78 0.76 0.73 0.69
0.97 0.93 0.84 0.74 0.79 0.84 0.94 1.05 1.14 1.18 1.20 1.21 1.26 1.20 1.20 1.21 1.20 1.09 1.09 1.04 1.06 1.01 0.98 0.95 0.92 0.88 0.84 0.81 0.78 0.76 0.73 0.70
0.84 0.80 0.75 0.80 0.83 0.94 1.04 1.13 1.17 1.20 1.26 1.26 1.28 1.23 1.27 1.21 1.16 1.14 1.11 1.08 1.06 1.02 0.99 0.94 0.88 0.86 0.82 0.78 0.76 0.72 0.68 0.67
0.77 0.74 0.77 0.88 0.95 1.08 1.12 1.20 1.23 1.34 1.44 1.43 1.41 1.36 1.32 1.26 1.17 1.12 1.10 1.07 1.02 0.98 0.94 0.89 0.85 0.81 0.77 0.72 0.69 0.64 0.62 0.58
0.83 0.87 0.94 1.00 1.11 1.16 1.22 1.30 1.37 1.42 1.44 1.43 1.37 1.32 1.31 1.29 1.19 1.11 1.05 1.03 1.00 0.93 0.86 0.78 0.72 0.69 0.64 0.60 0.54 0.53 0.53 0.48
1.00 1.07 1.12 1.15 1.18 1.23 1.25 1.27 1.26 1.30 1.34 1.35 1.37 1.35 1.27 1.20 1.10 1.03 1.00 0.94 0.85 0.77 0.70 0.66 0.61 0.56 0.54 0.49 0.43 0.38 0.42 0.36
1.18 1.19 1.20 1.25 1.28 1.29 1.26 1.24 1.24 1.25 1.27 1.28 1.28 1.22 1.14 1.05 0.97 0.91 0.86 0.78 0.71 0.66 0.59 0.54 0.51 0.47 0.45 0.41 0.34 0.36 0.37 0.36
1.23 1.23 1.22 1.23 1.25 1.30 1.33 1.37 1.26 1.20 1.23 1.15 1.08 1.04 0.95 0.86 0.82 0.77 0.71 0.66 0.61 0.58 0.51 0.46 0.41 0.38 0.39 0.39 0.34 0.38 0.37 0.39
1.23 1.24 1.26 1.25 1.25 1.26 1.23 1.14 1.14 1.15 1.08 0.97 0.88 0.85 0.83 0.78 0.73 0.71 0.67 0.62 0.57 0.52 0.46 0.42 0.40 0.39 0.39 0.39 0.37 0.34 0.35 0.48
1.19 1.20 1.23 1.28 1.20 1.04 0.92 1.02 1.04 0.94 0.85 0.83 0.83 0.83 0.78 0.74 0.70 0.67 0.63 0.54 0.52 0.51 0.48 0.43 0.40 0.38 0.36 0.36 0.37 0.33 0.33 0.36
1.20 1.23 1.22 1.18 0.98 1.00 1.01 0.92 0.86 0.85 0.83 0.84 0.85 0.80 0.77 0.70 0.70 0.65 0.60 0.51 0.45 0.45 0.46 0.43 0.42 0.42 0.35 0.35 0.30 0.31 0.33 0.38
1.24 1.21 1.11 1.05 1.02 0.95 0.93 0.89 0.85 0.80 0.81 0.83 0.83 0.79 0.74 0.70 0.67 0.60 0.53 0.49 0.46 0.48 0.48 0.46 0.41 0.43 0.42 0.36 0.31 0.28 0.32 0.34
1.10 1.05 1.04 1.02 0.92 0.89 0.84 0.79 0.77 0.81 0.82 0.84 0.80 0.78 0.74 0.66 0.60 0.57 0.55 0.53 0.50 0.50 0.51 0.50 0.46 0.41 0.43 0.41 0.40 0.37 0.29 0.25
1.04 1.04 0.98 0.92 0.90 0.87 0.84 0.84 0.87 0.87 0.82 0.81 0.78 0.75 0.69 0.65 0.61 0.59 0.57 0.54 0.53 0.52 0.52 0.51 0.49 0.46 0.43 0.43 0.43 0.40 0.37 0.32
0.96 0.92 0.89 0.89 0.87 0.88 0.87 0.85 0.79 0.77 0.76 0.71 0.68 0.62 0.58 0.58 0.59 0.58 0.55 0.51 0.48 0.46 0.46 0.45 0.47 0.51 0.49 0.48 0.43 0.38 0.35 0.32
0.88 0.84 0.81 0.85 0.87 0.88 0.86 0.83 0.77 0.73 0.72 0.66 0.61 0.56 0.54 0.53 0.54 0.48 0.43 0.41 0.41 0.42 0.42 0.45 0.46 0.51 0.49 0.46 0.42 0.43 0.42 0.36
0.82 0.82 0.81 0.86 0.85 0.82 0.81 0.75 0.75 0.76 0.68 0.64 0.55 0.53 0.48 0.47 0.43 0.42 0.40 0.39 0.38 0.39 0.41 0.43 0.46 0.51 0.49 0.45 0.38 0.40 0.41 0.35
Wind_Speed
14 13 11 9 9 9 9 9 9 8 6 5 3 1 2 3 5 7 8 10 11 12 13 14 15 16 18 19 19 19 19 18
12 11 10 9 9 9 9 9 9 8 6 4 2 3 4 6 8 9 10 11 12 13 14 16 17 19 20 22 22 21 21 20
10 10 9 9 9 10 10 9 8 7 6 5 5 6 8 9 10 11 12 13 14 16 18 20 21 22 22 24 24 23 24 23
9 8 8 9 9 10 10 9 8 7 7 7 8 9 10 11 13 13 14 15 17 19 21 22 23 24 25 26 26 26 26 26
9 8 9 9 9 9 9 9 9 8 9 10 11 12 13 13 14 15 16 17 19 22 23 24 26 27 27 28 28 28 28 28
9 9 9 9 9 9 9 9 9 10 10 11 13 14 14 15 16 16 17 20 22 24 26 27 28 29 29 30 30 30 29 30
9 9 9 9 9 9 9 9 10 11 11 13 14 15 15 14 15 17 20 23 25 27 28 30 31 31 30 30 30 31 30 30
9 9 9 9 8 9 10 11 12 13 14 16 17 16 16 16 18 21 24 26 28 29 31 31 31 31 31 30 31 31 30 30
9 8 8 8 8 9 10 11 13 16 17 18 17 15 17 19 21 24 27 28 30 30 31 31 31 31 31 32 32 32 32 33
9 8 8 8 9 11 14 16 16 15 16 18 16 17 18 21 24 25 28 29 30 30 31 31 32 33 33 34 35 34 35 36
9 9 10 10 12 16 20 19 20 17 17 15 16 18 21 22 24 26 29 30 30 31 32 33 34 35 35 35 37 36 37 36
11 12 13 14 17 18 20 22 19 16 16 17 18 20 22 24 25 27 29 31 32 33 34 35 35 37 38 38 38 39 39 38
13 14 15 17 17 17 13 15 15 15 16 17 18 20 22 25 27 29 30 32 33 34 35 37 37 38 40 41 40 40 39 42
15 16 16 15 14 13 14 14 14 15 17 18 20 23 25 27 29 31 33 35 36 37 38 39 39 40 41 42 43 43 41 40
15 14 13 12 11 12 13 13 14 17 19 21 23 25 28 30 32 34 36 37 37 39 39 41 41 42 42 43 44 45 47 47
12 12 11 11 11 12 13 15 17 19 21 23 26 28 30 32 34 36 37 38 39 40 41 43 43 44 44 45 46 48 49 51
11 11 11 11 13 14 15 18 19 21 23 25 28 30 31 34 36 37 39 40 41 42 43 44 45 46 47 47 48 49 50 49
11 12 12 13 15 16 18 19 22 23 25 27 29 31 34 36 38 40 41 42 43 44 45 46 46 47 48 48 48 49 48 49
13 13 14 15 16 18 19 21 23 25 27 30 32 34 36 38 40 41 42 43 45 46 46 47 47 47 47 48 49 48 48 47
14 15 16 17 18 19 21 23 26 27 30 31 33 35 38 39 41 42 43 45 46 47 47 48 48 46 48 48 48 45 43 41
Wind_Direction
182 188 193 196 199 197 188 179 174 170 169 170 176 217 303 317 323 325 325 327 331 330 331 332 331 330 332 331 329 327 323 319
181 187 196 199 198 190 182 179 176 177 181 193 227 273 291 301 309 312 314 315 320 322 323 323 322 323 323 324 322 320 319 314
185 193 197 195 190 184 181 182 183 190 206 231 260 277 285 292 300 303 306 310 311 313 315 316 315 316 319 320 318 317 315 311
193 195 191 186 185 185 188 192 201 216 232 251 272 278 286 291 297 300 302 305 308 308 311 311 313 312 311 313 311 311 310 307
192 192 188 186 187 193 199 207 220 235 249 263 275 281 286 290 295 296 299 303 304 306 308 307 307 308 307 307 307 307 305 303
189 190 190 194 196 203 209 222 235 249 259 272 280 284 286 291 293 294 298 301 304 305 305 306 305 305 305 304 303 303 301 300
188 191 195 199 205 215 224 238 249 259 270 281 286 287 287 287 290 295 300 302 304 304 305 305 305 304 303 303 302 302 300 298
187 190 198 206 220 229 239 252 262 267 278 282 285 284 284 287 292 297 300 302 305 305 305 305 304 304 303 303 302 300 299 297
184 195 209 223 234 245 253 260 272 277 276 289 288 288 290 290 296 300 304 306 306 306 306 305 305 304 302 302 301 299 297 297
201 217 229 240 252 262 265 265 275 284 284 280 286 290 297 300 300 300 305 306 306 306 306 305 305 304 301 301 300 298 297 296
222 234 245 257 268 274 276 272 270 276 289 289 289 293 300 304 304 304 305 306 306 306 306 305 304 303 301 301 300 298 297 296
240 250 261 272 279 284 287 296 273 276 289 296 298 300 304 306 306 307 308 307 307 306 306 305 304 303 302 302 301 300 297 295
251 261 269 276 281 287 285 287 288 290 293 297 299 303 306 308 309 310 310 310 309 308 307 307 306 305 304 302 302 300 298 295
257 264 273 273 279 279 287 291 292 294 297 299 302 305 307 308 309 310 310 309 309 308 307 306 306 306 304 303 303 301 298 296
256 261 261 269 274 281 286 291 295 297 299 301 303 306 307 308 309 310 310 309 308 307 307 307 306 305 304 303 302 300 300 298
248 252 257 268 271 282 286 292 296 298 299 301 304 306 307 308 310 310 310 309 308 307 307 306 305 304 303 302 301 300 300 300
244 252 258 267 275 283 288 294 298 299 301 302 304 306 308 309 310 310 310 309 308 307 306 306 304 303 303 303 302 300 300 299
246 256 265 272 278 286 290 295 299 300 302 304 305 307 308 309 310 310 310 309 308 307 306 305 304 302 303 303 302 301 300 300
258 262 267 275 282 287 293 297 300 300 302 305 305 307 308 309 310 310 310 309 309 308 307 306 305 302 302 302 303 300 300 300
262 266 272 278 283 289 294 300 302 301 303 305 305 307 309 310 310 310 310 310 310 309 308 307 306 303 302 303 304 300 298 299